DW8097 Weather Reports


time (UTC)temp
C
wind
direction
speed
KPH
gust
KPH
rain 1hr
cm
rain 24hr
cm
rain mn
cm
humidity
%
barometer
mb
20260906124513 20 175 4.8 11.3 0.00 0.00 0.00 90 1017.0
20260906123043 20 155 4.8 12.9 0.00 0.00 0.00 91 1017.1
20260906121540 20 176 8.0 16.1 0.00 0.00 0.00 91 1017.0
20260906120037 20 142 3.2 9.7 0.00 0.00 0.00 91 1016.8
20260906114537 20 115 0.0 6.4 0.00 0.00 0.00 91 1016.8
20260906113039 19 172 0.0 4.8 0.00 0.00 0.00 91 1016.5
20260906111533 19 170 0.0 9.7 0.00 0.00 0.00 91 1016.3
20260906110030 19 214 1.6 8.0 0.00 0.00 0.00 92 1016.1
20260906104535 19 169 6.4 9.7 0.00 0.00 0.00 93 1016.1
20260906103028 19 159 6.4 16.1 0.00 0.00 0.00 93 1016.0
20260906101527 19 182 1.6 16.1 0.00 0.00 0.00 93 1016.1
20260906100058 19 165 8.0 14.5 0.00 0.00 0.00 93 1015.7
20260906094557 18 195 4.8 8.0 0.00 0.00 0.00 94 1015.7
20260906093035 18 173 1.6 4.8 0.00 0.00 0.00 94 1015.4
20260906091524 17 180 0.0 3.2 0.00 0.00 0.00 93 1015.3
20260906090023 17 216 0.0 1.6 0.00 0.00 0.00 93 1015.2
20260906084530 18 217 0.0 1.6 0.00 0.00 0.00 93 1015.3
20260906083019 18 196 0.0 3.2 0.00 0.00 0.00 93 1015.1
20260906081517 19 207 0.0 0.0 0.00 0.00 0.00 93 1015.3
20260906080027 19 194 0.0 0.0 0.00 0.00 0.00 93 1015.4
20260906074514 20 256 0.0 3.2 0.00 0.00 0.00 93 1015.5
20260906073013 19 248 0.0 0.0 0.00 0.00 0.00 92 1015.4
20260906071512 19 248 0.0 0.0 0.00 0.00 0.00 92 1015.3
20260906070010 19 250 0.0 0.0 0.00 0.00 0.00 93 1015.6
20260906064514 18 250 0.0 0.0 0.00 0.00 0.00 92 1015.6
20260906063008 19 269 0.0 1.6 0.00 0.00 0.00 93 1015.6
20260906061512 18 220 0.0 0.0 0.00 0.00 0.00 93 1015.7
20260906060008 18 220 0.0 0.0 0.00 0.00 0.00 93 1015.7
20260906054506 18 216 0.0 0.0 0.00 0.00 0.00 92 1015.7
20260906053004 18 216 0.0 0.0 0.00 0.00 0.00 92 1015.7
20260906051506 18 216 0.0 0.0 0.00 0.00 0.00 92 1015.6
20260906050033 18 216 0.0 0.0 0.00 0.00 0.00 92 1015.6
20260906044532 18 216 0.0 0.0 0.00 0.00 0.00 92 1015.8
20260906043031 19 227 0.0 0.0 0.00 0.00 0.00 92 1015.9
20260906041527 19 227 0.0 0.0 0.00 0.00 0.00 91 1015.9
20260906040030 20 253 0.0 1.6 0.00 0.00 0.00 92 1015.9
20260906034534 19 253 0.0 0.0 0.00 0.00 0.00 91 1015.8
20260906033028 20 254 1.6 4.8 0.00 0.00 0.00 90 1015.8
20260906031519 20 241 0.0 0.0 0.00 0.00 0.00 90 1015.5
20260906030016 20 240 0.0 1.6 0.00 0.00 0.00 90 1015.4
20260906024514 20 217 0.0 1.6 0.00 0.00 0.00 91 1015.0
20260906023013 20 217 0.0 0.0 0.00 0.00 0.00 89 1014.7
20260906021510 20 217 0.0 0.0 0.00 0.00 0.00 89 1014.4
20260906020009 20 187 0.0 3.2 0.00 0.00 0.00 89 1014.2
20260906014520 21 223 0.0 3.2 0.00 0.00 0.00 88 1013.8
20260906013008 21 220 0.0 3.2 0.00 0.00 0.00 87 1013.6
20260906011600 21 217 0.0 3.2 0.00 0.00 0.00 86 1013.6
20260906011505 21 222 0.0 3.2 0.00 0.00 0.00 86 1013.5
20260906010111 22 213 0.0 0.0 0.00 0.00 0.00 85 1013.5
20260906004554 22 242 0.0 0.0 0.00 0.00 0.00 82 1013.3
20260906003108 23 223 0.0 4.8 0.00 0.00 0.00 81 1013.0
20260906001548 24 240 0.0 4.8 0.00 0.00 0.00 77 1013.0
20260906000043 25 211 1.6 14.5 0.00 0.00 0.00 73 1012.8
20260905234542 26 115 4.8 17.7 0.00 0.00 0.00 72 1012.9
20260905233042 26 120 9.7 17.7 0.00 0.00 0.00 72 1012.8
20260905231541 26 119 6.4 20.9 0.00 0.00 0.00 72 1012.7
20260905230039 26 86 11.3 25.7 0.00 0.00 0.00 71 1012.7
20260905224538 26 133 9.7 16.1 0.00 0.00 0.00 72 1012.8
20260905223037 26 132 8.0 17.7 0.00 0.00 0.00 71 1012.6
20260905221534 26 123 12.9 22.5 0.00 0.00 0.00 70 1012.6
20260905220041 26 136 11.3 20.9 0.00 0.00 0.00 71 1012.6
20260905214531 26 127 12.9 20.9 0.00 0.00 0.00 69 1012.8
20260905213039 26 140 9.7 17.7 0.00 0.00 0.00 71 1013.1
20260905211528 27 101 6.4 17.7 0.00 0.00 0.00 70 1013.4
20260905210023 27 113 8.0 12.9 0.00 0.00 0.00 69 1013.6
20260905204521 27 122 8.0 14.5 0.00 0.00 0.00 68 1013.9
20260905203021 28 148 4.8 9.7 0.00 0.00 0.00 66 1014.1
20260905201519 27 134 1.6 11.3 0.00 0.00 0.00 66 1014.3
20260905200019 28 171 4.8 11.3 0.00 0.00 0.00 64 1014.4
20260905194517 28 122 3.2 14.5 0.00 0.00 0.00 61 1014.3
20260905193015 28 186 4.8 17.7 0.00 0.00 0.00 63 1014.0
20260905191510 28 130 9.7 17.7 0.00 0.00 0.00 66 1014.0
20260905190011 27 115 9.7 12.9 0.00 0.00 0.00 67 1014.2
20260905184505 27 172 3.2 11.3 0.00 0.00 0.00 66 1014.6
20260905183001 27 128 3.2 12.9 0.00 0.00 0.00 69 1014.7
20260905181536 26 142 3.2 14.5 0.00 0.00 0.00 70 1014.6
20260905180031 26 100 4.8 11.3 0.00 0.00 0.00 71 1014.8
20260905174530 26 121 1.6 9.7 0.00 0.00 0.00 71 1014.9
20260905173026 26 147 0.0 14.5 0.00 0.00 0.00 71 1015.2
20260905171526 27 109 3.2 11.3 0.00 0.00 0.00 71 1015.1
20260905170023 26 119 1.6 11.3 0.00 0.00 0.00 72 1015.0
20260905164517 25 180 8.0 12.9 0.00 0.00 0.00 75 1014.9
20260905163013 25 123 6.4 14.5 0.00 0.00 0.00 76 1014.9
20260905161506 25 107 1.6 12.9 0.00 0.00 0.00 78 1014.8
20260905160007 24 119 4.8 11.3 0.00 0.00 0.00 79 1014.6
20260905154603 25 92 6.4 12.9 0.00 0.00 0.00 79 1014.6
20260905153059 23 111 1.6 9.7 0.00 0.00 0.00 81 1014.7
20260905151559 23 118 1.6 8.0 0.00 0.00 0.00 82 1014.9
20260905150101 23 109 0.0 6.4 0.00 0.00 0.00 83 1014.8
20260905144556 23 159 1.6 8.0 0.00 0.00 0.00 83 1014.6
20260905143026 23 148 1.6 12.9 0.00 0.00 0.00 83 1014.3
20260905141524 23 121 1.6 6.4 0.00 0.00 0.00 84 1014.1
20260905141522 23 117 1.6 6.4 0.00 0.00 0.00 84 1014.1
20260905140018 23 107 3.2 9.7 0.00 0.00 0.00 84 1014.0
20260905134522 23 142 3.2 9.7 0.00 0.00 0.00 85 1014.1
20260905133016 23 73 3.2 12.9 0.00 0.00 0.00 85 1013.8
20260905131526 22 89 3.2 11.3 0.00 0.00 0.00 87 1013.2
20260905130009 22 119 1.6 11.3 0.00 0.00 0.00 88 1013.0